Home   Weather   Kielce   Past weeks

Flag for Poland Past Weather in Kielce, Poland — Yesterday and Last 2 Weeks

Now
30 °F

Fog.


Feels Like: 27 °F
Forecast: 26 / 33 °F
Wind: 3 mph from Southwest

Location: Kielce

Current Time: Dec 5, 2016 at 5:55:19 pm

Latest Report: Dec 5, 2016 at 5:00 pm


Visibility: 4 mi

Pressure: 30.32 "Hg

Humidity: 61%

Dew Point: 18 °F

Location of KielceLocation

Past Weather in Kielce — Graph

°F

Kielce Temperature Yesterday

Maximum temperature yesterday: 31 °F (at 1:00 pm)
Minimum temperature yesterday: 22 °F (at 9:00 pm)
Average temperature yesterday: 29 °F

High & Low Weather Summary for the Past Weeks

 TemperatureHumidityPressure
High57 °F (Nov 21, 1:00 pm)100% (Nov 24, 2:00 am)30.53 "Hg (Nov 24, 2:00 am)
Low17 °F (Dec 5, 7:00 am)53% (Dec 5, 3:00 pm)29.35 "Hg (Dec 2, 3:00 am)
Average35 °F87%30.13 "Hg
* Reported Nov 20 4:00 pm — Dec 5 4:00 pm, Kielce, Weather by CustomWeather, © 2016

Note: Actual official high and low records may vary slightly from our data, if they occured in-between our weather recording intervals... More about our weather records

Advertising

Kielce Weather History for the Previous 24 Hours

Scroll right to see more
 ConditionsComfort  
Time TempWeatherWind HumidityBarometerVisibility
4:00 pm
Mon, Dec 5
31 °FOvercast.3 mph59%30.33 "Hg6 mi
3:00 pm35 °FOvercast.3 mph53%30.33 "Hg9 mi
2:00 pm36 °FPartly sunny.3 mph58%30.34 "Hg9 mi
1:00 pm34 °FPassing clouds.2 mph67%30.37 "Hg6 mi
12:00 pm32 °FFog.2 mph77%30.39 "Hg5 mi
11:00 am28 °FFog.1 mph95%30.42 "Hg3 mi
10:00 am24 °FFog.No wind95%30.45 "Hg2 mi
9:00 am19 °FFog.1 mph93%30.46 "Hg2 mi
8:00 am17 °FFog.1 mph92%30.48 "Hg2 mi
7:00 am17 °FFog.No wind92%30.48 "Hg0 mi
6:00 am18 °FFog.No wind93%30.49 "Hg0 mi
5:00 am18 °FFog.No wind93%30.50 "Hg0 mi
4:00 am20 °FFog.1 mph94%30.50 "Hg0 mi
3:00 am21 °FFog.1 mph95%30.50 "Hg0 mi
2:00 am23 °FFog.1 mph95%30.50 "Hg0 mi
1:00 am24 °FFog.1 mph96%30.51 "Hg0 mi
12:00 am25 °FFog.1 mph97%30.51 "Hg0 mi
11:00 pm
Sun, Dec 4
24 °FFog.1 mph97%30.53 "Hg0 mi
10:00 pm23 °FFog.1 mph96%30.53 "Hg0 mi
9:00 pm22 °FFog.1 mph94%30.53 "Hg1 mi
8:00 pm24 °FFog.1 mph94%30.53 "Hg2 mi
7:00 pm24 °FFog.1 mph92%30.51 "Hg2 mi
6:00 pm27 °FFog.No wind87%30.50 "Hg5 mi
5:00 pm29 °FPassing clouds.1 mph83%30.48 "Hg6 mi
Weather by CustomWeather, © 2016

See weather overviewHow to use our weather pages